Regional Weather Roundup
Issued by NWS Jackson, KY

Home | Current Version | Previous Version | Graphics & Text | Print | Product List | Glossary On
Versions: 1 2 3 4 5 6 7 8 9 10 11 12 13 14 15 16 17 18 19 20 21 22 23 24 25 26 27 28 29 30 31 32 33 34 35 36 37 38 39 40 41 42 43 44 45 46 47 48 49 50
000
ASUS43 KJKL 281419
RWRJKL

EAST KENTUCKY HOURLY WEATHER ROUNDUP
NATIONAL WEATHER SERVICE JACKSON KY
1000 AM EDT THU AUG 28 2014

NOTE: "FAIR" INDICATES FEW OR NO CLOUDS BELOW 12,000 FEET WITH
NO SIGNIFICANT WEATHER AND/OR OBSTRUCTIONS TO VISIBILITY.

* THESE REPORTS ARE NOT UNDER NWS QUALITY CONTROL AND MAY NOT
  REPORT WEATHER SUCH AS PRECIPITATION AND FOG.

KYZ079-080-083-085-087-088-110-112-115-119-120-281500
...EASTERN KENTUCKY...

CITY           SKY/WX    TMP DP  RH WIND       PRES   REMARKS
JACKSON        CLOUDY    72  70  93 CALM      30.11R FOG
LONDON         SUNNY     77  69  76 VRB3      30.10S
SOMERSET*      PTSUNNY   72  72 100 CALM      30.09F FOG
MONTICELLO*    MOSUNNY   76  74  93 CALM      30.10S FOG
WILLIAMSBURG*  SUNNY     73  72  94 CALM      30.10S
MIDDLESBORO*   SUNNY     71  67  85 CALM      30.11S
HARLAN APT*    PTSUNNY   68  68 100 MISG      30.12S
HAZARD APT*    CLOUDY    72  72 100 CALM      30.10S
BLACK MTN*       N/A     68  66  94 VRB3        N/A
PIKEVILLE APT* CLOUDY    70  68  94 CALM      30.12R
BIG SANDY*     CLOUDY    71  70  97 CALM      30.11S FOG
MOREHEAD APT*  CLOUDY    73  68  83 NE7       30.12S
ASHLAND*       CLOUDY    70  64  83 SE5       30.09S
$$

KYZ035-036-041-042-044-050-067-078-099-281500
...CENTRAL KENTUCKY...

CITY           SKY/WX    TMP DP  RH WIND       PRES   REMARKS
MT STERLING*   CLOUDY    72  70  94 E7        30.12S FOG
FLEMING/MASON* CLOUDY    72  68  88 E7        30.11S
DANVILLE*      MOSUNNY   77  70  78 CALM      30.10S
RICHMOND*      MOSUNNY   77  68  73 E3        30.08F
LEXINGTON      SUNNY     80  72  76 E6        30.08F
FRANKFORT      MOSUNNY   77  72  84 NE6       30.08S
$$

KYZ091>093-OHZ055-061-077-WVZ005-015-034-035-042-281500
...SOUTHERN OHIO/WEST VIRGINIA...

CITY           SKY/WX    TMP DP  RH WIND       PRES   REMARKS
COVINGTON      MOSUNNY   75  61  60 E7        30.11S
COLUMBUS       MOSUNNY   72  56  57 E7        30.13S
DAYTON         MOSUNNY   71  62  73 E8        30.14S
WILMINGTON     SUNNY     69  61  75 E6        30.12S
HUNTINGTON     CLOUDY    70  67  90 N9        30.10R
CHARLESTON     PTSUNNY   74  68  81 NE3       30.10R
PINEVILLE*     CLOUDY    73  71  94 MISG      30.18R
BECKLEY        CLOUDY    71  66  84 W6        30.16R
BLUEFIELD      PTSUNNY   74  66  76 NW6       30.17S
$$

VAZ002-007-008-TNZ017-027-036-066-071-281500
...SOUTHWEST VIRGINIA/EAST TENNESSEE...

CITY           SKY/WX    TMP DP  RH WIND       PRES   REMARKS
WISE*          SUNNY     73  64  73 CALM      30.17S
JONESVILLE*      N/A     73  66  78 CALM      30.13S
ABINGDON*      PTSUNNY   75  64  67 W3        30.14S
BRISTOL        MOSUNNY   72  62  71 CALM      30.12S
KNOXVILLE      MOSUNNY   74  65  73 SW3       30.08S
OAK RIDGE      SUNNY     76  67  73 CALM      30.10S
CROSSVILLE     MOSUNNY   78  68  71 CALM      30.14R
NASHVILLE      SUNNY     81  72  74 CALM      30.07S
$$

...KEY TO REMARKS...
VSB - VISIBILITY IN MILES
WCI - WIND CHILL INDEX
HX  - HEAT INDEX

$$


USA.gov is the U.S. government's official web portal to all federal, state and local government web resources and services.